Preview of NWS' New Version of Forecast
This preview is not operational and should not be used for support decisions.

Regional Weather Roundup (RWR)

Issued by National Weather Service (NWS)

                            
000
ASUS43 KMKX 181911
RWRWI 

WISCONSIN REGIONAL WEATHER ROUNDUP
NATIONAL WEATHER SERVICE MILWAUKEE/SULLIVAN WI
200 PM CDT TUE JUN 18 2019

NOTE: "FAIR" INDICATES FEW OR NO CLOUDS BELOW 12,000 FEET WITH NO
SIGNIFICANT WEATHER AND/OR OBSTRUCTIONS TO VISIBILITY.

WIZ001-002-006>008-014>016-023>028-182000-
NORTHWEST WISCONSIN
  
CITY           SKY/WX    TMP DP  RH WIND       PRES   REMARKS
SUPERIOR ARPT  CLOUDY    56  48  75 CALM      29.96F                  
ASHLAND        FAIR      66  56  70 N9        29.96S                  
HAYWARD        CLOUDY    66  52  60 CALM      29.95S                  
SIREN          CLOUDY    69  51  52 NW3       29.94S                  
CUMBERLAND     CLOUDY    64  50  59 W8        29.95S                  
RICE LAKE      CLOUDY    68  53  58 N7        29.95S                  
CHETEK         CLOUDY    69  53  57 CALM      29.93F                  
LADYSMITH      PTSUNNY   71  53  52 NW8       29.95F                  
EAU CLAIRE     FAIR      72  50  45 VRB6      29.92F                  
MENOMONIE      PTSUNNY   68  50  52 W7        29.93F                  
NEW RICHMOND   CLOUDY    70  49  48 W6        29.95S                  
OSCEOLA        CLOUDY    69  52  54 CALM      29.97F                  
$$
 
WIZ003>005-009-010-017-018-182000-
NORTH CENTRAL WISCONSIN
  
CITY           SKY/WX    TMP DP  RH WIND       PRES   REMARKS
MANITOWISH WTR CLOUDY    62  51  67 CALM      29.95S                  
ARBOR VITAE    CLOUDY    64  51  62 W6        29.95S                  
WOODRUFF       CLOUDY    64  51  62 W6        29.95S                  
RHINELANDER    CLOUDY    72  48  42 W12G20    29.94S                  
EAGLE RIVER    PTSUNNY   66  48  52 NW10      29.94S                  
LAND O LAKES   CLOUDY    65  48  54 W5        29.95S                  
PHILLIPS       CLOUDY    65  51  62 CALM      29.94F                  
TOMAHAWK       CLOUDY    67  50  53 NW8       29.94S                  
MEDFORD        CLOUDY    68  51  54 SW7       29.94F                  
MERRILL        PTSUNNY   71  52  50 W8        29.93F                  
$$
 
WIZ029-030-035-036-043>047-182000-
CENTRAL WISCONSIN
  
CITY           SKY/WX    TMP DP  RH WIND       PRES   REMARKS
WAUSAU         FAIR      73  51  46 W12G22    29.91S                  
MOSINEE        PTSUNNY   72  54  53 W10       29.94S                  
MARSHFIELD     FAIR      72  54  53 NW10      29.92F                  
STEVENS POINT  PTSUNNY   72  54  53 W10G17    29.92F                  
WAUPACA        CLOUDY    73  64  71 SW5       29.92F                  
WAUTOMA        CLOUDY    68  64  87 SW7       29.93F                  
WISC RAPIDS    CLOUDY    72  57  59 W6        29.92F                  
CAMP DOUGLAS   CLOUDY    70  63  78 SW5       29.93F                  
$$
 
WIZ011>013-019>022-031-037>040-048>050-182000-
NORTHEAST WISCONSIN
  
CITY           SKY/WX    TMP DP  RH WIND       PRES   REMARKS
ANTIGO         FAIR      71  54  54 W12G17    29.93S                  
SHAWANO        FAIR      77  63  61 SW5       29.89F                  
OCONTO         CLOUDY    69  63  80 S7        29.90F                  
STURGEON BAY   PTSUNNY   66  59  78 S9        29.92F                  
GREEN BAY      CLOUDY    72  66  81 NW3       29.91F HAZE             
MANITOWOC      FAIR      68  59  73 S12       29.92F                  
APPLETON       LGT RAIN  68  59  73 W8        29.91F FOG              
CLINTONVILLE   HAZE      73  61  65 SE6       29.90F VSB 1            
OSHKOSH        CLOUDY    73  62  68 W5        29.91F                  
$$
 
WIZ032>034-041-042-053>061-182000-
SOUTHWEST WISCONSIN
  
CITY           SKY/WX    TMP DP  RH WIND       PRES   REMARKS
LA CROSSE      PTSUNNY   75  55  49 CALM      29.92F                  
SPARTA         PTSUNNY   72  59  64 CALM      29.93F                  
VIROQUA        CLOUDY    68  63  85 NW3       29.95F                  
BOSCOBEL       PTSUNNY   72  64  76 SW6       29.94F                  
PRAIRIE DU CHI CLOUDY    71  64  79 CALM      29.93F                  
PLATTEVILLE    FAIR      74  65  74 W7        29.95F                  
$$

WIZ056-057-062-063-064-067-068-182000-
SOUTH CENTRAL WISCONSIN
  
CITY           SKY/WX    TMP DP  RH WIND       PRES   REMARKS
REEDSBURG      CLOUDY    69  66  89 SW6       29.93F                  
BARABOO/DELLS  CLOUDY    70  63  80 SW6       29.93F                  
LONE ROCK      FAIR      71  61  70 W8        29.93F                  
MINERAL POINT  FAIR      75  63  64 SW6       29.94F                  
MADISON        PTSUNNY   75  59  57 W5        29.92F                  
MIDDLETON      PTSUNNY   76  61  59 W7        29.94F                  
WATERTOWN      FAIR      79  60  52 SW6       29.91F HX  80           
MONROE         PTSUNNY   76  59  56 SW7       29.94F                  
JANESVILLE     PTSUNNY   79  59  50 CALM      29.92F HX  80           
$$
 
WIZ051-052-058>065-066-070>072-182000-
SOUTHEAST WISCONSIN
  
CITY           SKY/WX    TMP DP  RH WIND       PRES   REMARKS
MILWAUKEE      PTSUNNY   71  60  68 SE12      29.92F                  
WAUKESHA       PTSUNNY   75  57  53 S3        29.93F                  
MILWAUKEE/TIMM CLOUDY    79  55  44 S3        29.92F                  
RACINE         FAIR      67  58  72 S10       29.95F                  
KENOSHA        FAIR      73  62  68 SE10      29.94F                  
FOND DU LAC    FAIR      76  62  62 W7        29.91F                  
SHEBOYGAN      PTSUNNY   69  60  73 SE7       29.92F                  
WEST BEND      PTSUNNY   75  55  50 CALM      29.91F                  
JUNEAU         FAIR      74  60  63 W5        29.93F                  
$$

LSZ147-162-182000-
LAKE SUPERIOR
  
STATION/POSITION TIME  TEMP    WIND        PRES    WAVE
                       AIR SEA DIR/SP/G            HT/PER
                 (UTC) (F)     (DEG/KT/KT) (MB)    (FT/S)
W MID LAKE BUOY  1850   43 39     CALM     1015.1F   0
$$
 
LMZ867-665-643>646-182000-
LAKE MICHIGAN
  
STATION/POSITION TIME  TEMP    WIND        PRES    WAVE
                       AIR SEA DIR/SP/G            HT/PER
                 (UTC) (F)     (DEG/KT/KT) (MB)    (FT/S)
S GREEN BAY BUOY 1800   64 63  190/  4/  4 1013.2
N MID LAKE BUOY  1850   45 39  200/ 10/ 12 1014.3F   0
NORTHPORT PIER   1840   58     130/  6/  8 1012.9S
SHEBOYGAN LAKESH 1900   53     170/ 14/ 15 1013.2F
ATWATER BUOY     1830   54 53  160/  8/ 10 1014.1F   1/ 2
MILWAUKEE LAKESH 1850   55     140/ 16/ 18   N/A
S MID LAKE BUOY  1850   53 46  180/  2/  4 1015.1F   0
KENOSHA   LAKESH 1900   57     170/ 10/ 11 1013.9
$$

TC  - TEMPERATURE IN CELSIUS
VSB - VISIBILITY IN STATUTE MILES
WCI - WIND CHILL INDEX
HX  - HEAT INDEX